Wetbulb
72.32 72.45 72.27 71.89 72.76 72.82 70.39 70.26 67.60 63.64 64.26 69.32 69.33 72.45 74.06 73.13 72.37 70.05 67.84 67.59 66.97 66.56 66.10 66.50 67.16 68.43 68.92 69.84 70.31 70.51 71.05 71.41 72.08 72.53 72.81 72.59 72.46 72.58
72.54 72.35 72.10 72.26 72.21 71.50 72.94 71.08 70.25 68.12 64.65 68.78 69.28 70.66 70.35 73.89 72.87 70.55 68.27 67.16 66.61 65.85 65.41 66.03 66.18 66.39 66.83 67.37 67.77 68.31 68.74 69.25 69.74 69.97 70.23 70.70 71.23 71.79
72.74 71.96 72.09 72.61 72.52 71.87 72.26 71.55 70.40 70.60 66.94 68.95 71.06 70.38 70.67 72.16 73.31 70.25 67.73 65.25 65.27 64.94 64.68 64.62 64.34 64.48 64.56 64.27 64.43 65.02 66.39 67.21 67.75 68.40 68.82 69.01 69.20 69.64
71.54 72.03 71.85 73.86 71.46 72.06 70.40 71.17 71.54 71.34 69.76 66.39 69.30 70.25 70.69 71.92 71.79 68.79 69.21 66.99 65.27 64.27 63.28 62.54 61.85 61.30 60.98 60.88 60.81 61.46 62.09 62.90 63.67 64.72 66.07 66.72 66.97 67.08
72.44 72.02 71.78 71.42 70.92 71.02 71.43 70.70 70.83 71.54 70.53 68.63 67.77 70.01 70.89 71.55 70.45 70.19 65.70 64.37 64.24 63.47 62.09 61.21 61.02 60.76 60.04 59.16 58.41 57.88 57.66 58.78 59.58 60.57 61.66 62.72 63.56 63.90
73.43 73.06 72.68 71.60 71.51 70.76 71.70 70.75 71.45 69.69 69.65 68.83 68.31 68.52 69.93 70.74 70.58 67.28 64.42 63.59 61.99 62.61 62.09 60.82 60.98 60.93 60.37 59.63 58.56 57.13 55.88 55.72 56.02 56.80 57.39 58.06 59.16 59.66
73.18 73.30 72.97 72.37 69.67 70.08 71.60 70.71 70.47 69.98 69.46 68.86 68.63 68.61 68.52 67.86 67.32 68.56 67.50 65.28 62.81 61.82 59.77 59.62 59.11 56.43 55.67 56.89 57.57 56.57 55.28 55.11 54.32 54.44 54.34 54.62 55.05 55.76
72.34 72.59 70.34 69.61 67.80 66.68 66.56 66.79 67.54 67.68 67.17 67.48 67.41 66.49 65.43 65.14 66.35 66.87 65.62 63.47 61.09 62.87 59.42 56.59 57.53 54.20 53.97 54.41 55.84 55.24 54.30 53.93 53.92 53.60 53.35 52.98 53.11 53.25
72.40 72.02 72.81 73.03 68.11 66.74 65.12 64.96 64.34 63.99 65.63 66.21 65.09 63.79 63.31 62.49 64.24 64.49 63.59 62.56 62.04 62.47 59.74 56.46 58.03 55.21 55.32 53.99 54.98 54.77 54.20 53.42 53.04 52.43 51.68 51.25 50.87 50.98
71.83 71.95 71.58 70.77 70.34 66.65 65.54 63.31 60.37 59.56 61.76 64.46 62.50 60.34 60.15 59.55 62.28 65.17 61.88 60.66 61.04 62.89 62.07 56.56 57.04 55.90 56.08 54.28 55.14 54.25 53.15 52.98 51.94 51.26 50.24 49.42 48.62 48.72
71.29 70.69 71.90 69.89 65.26 66.00 66.07 61.17 58.76 57.11 57.54 58.40 58.40 57.19 56.87 57.76 60.47 65.90 63.60 60.21 58.73 60.21 62.46 58.88 57.62 55.68 54.83 54.11 54.00 55.44 53.91 53.11 51.82 51.01 50.50 49.34 48.03 47.68
66.28 63.80 64.37 65.32 60.81 62.38 64.70 62.35 60.06 58.93 57.15 56.36 55.58 57.04 57.89 60.42 61.50 60.18 62.34 60.83 58.73 58.25 60.21 58.12 56.68 56.46 53.75 55.36 53.79 52.69 51.49 53.16 51.62 50.82 50.77 50.04 48.24 44.58
66.51 63.37 61.55 59.29 58.57 59.35 62.62 65.48 63.36 62.13 61.86 60.88 60.48 60.16 60.24 58.96 58.91 58.51 58.61 58.67 56.90 55.86 58.64 58.83 58.18 58.52 58.32 55.02 54.54 53.67 51.98 51.16 49.60 48.50 49.88 49.52 48.71 47.77
67.03 63.97 60.60 57.47 56.90 57.75 61.24 57.18 57.95 60.87 61.13 60.28 60.77 58.82 58.01 57.95 57.87 57.98 57.57 58.12 58.70 57.71 57.37 58.29 55.33 53.50 53.81 54.85 55.74 56.36 54.49 51.72 50.18 49.18 48.29 49.04 48.96 49.41
64.37 61.64 55.19 53.03 53.44 55.84 56.76 57.67 59.50 61.70 61.88 59.73 57.37 56.80 58.13 59.76 59.81 59.62 59.77 58.78 57.58 56.98 57.32 55.92 55.13 53.63 52.12 50.81 50.25 51.29 55.44 54.70 53.77 54.63 53.61 52.14 50.96 48.45
58.71 58.39 59.07 59.63 58.58 58.60 59.64 60.18 61.61 61.43 60.01 57.75 57.15 56.87 58.07 57.41 57.73 58.37 56.41 54.84 54.37 54.66 56.54 56.40 53.44 51.56 50.40 51.92 47.97 46.22 48.10 49.06 54.63 54.70 54.71 54.91 55.64 54.63
59.76 61.14 60.46 60.08 59.58 60.16 60.10 60.43 59.66 60.06 58.20 57.87 57.77 57.03 53.76 52.46 50.86 51.32 53.31 55.14 53.77 52.95 51.86 51.33 53.20 54.22 51.39 51.11 47.56 47.71 47.72 47.30 49.38 49.31 49.26 48.52 49.89 55.00
58.99 58.79 58.33 58.43 58.07 58.05 57.77 58.04 58.49 59.29 56.33 55.53 54.11 54.01 53.58 51.62 49.83 51.13 50.56 50.01 48.95 47.84 47.81 48.64 47.50 47.81 51.08 49.05 53.70 47.92 46.66 46.26 47.75 46.84 46.35 45.55 45.43 52.47
58.09 57.24 57.06 56.94 56.54 57.14 57.41 55.91 54.17 54.18 54.81 53.78 52.07 51.18 50.40 49.02 51.02 49.45 50.39 50.02 48.22 46.30 47.14 46.42 45.47 44.20 43.70 45.22 47.64 52.38 47.31 46.96 46.25 45.77 45.53 44.39 44.06 46.12
58.43 57.44 57.20 57.36 57.20 56.49 54.85 54.00 53.86 53.87 51.97 51.51 52.21 51.80 50.41 50.55 47.69 46.80 47.44 46.10 45.94 47.30 48.18 47.03 46.11 45.70 43.95 44.26 45.77 48.67 50.34 46.89 46.21 45.27 44.70 45.25 47.07 52.01
57.84 58.91 58.66 58.40 57.32 56.11 54.69 54.00 53.57 53.63 52.91 51.51 50.24 50.11 49.59 47.91 46.64 46.59 46.31 47.68 47.77 47.58 47.69 46.48 47.75 51.80 48.37 49.23 46.53 47.43 49.40 50.13 50.39 46.84 46.60 44.50 43.72 43.25
56.41 58.86 57.02 56.38 55.66 54.97 54.95 54.56 53.75 52.93 52.42 50.80 50.53 50.39 49.21 48.80 47.78 47.72 47.30 46.93 46.19 47.52 47.18 47.14 49.74 47.41 47.17 47.05 45.77 46.18 46.68 48.24 49.66 50.96 51.30 49.73 44.77 41.51
55.95 55.16 54.86 55.00 55.83 56.03 54.08 53.17 53.51 52.62 51.82 50.83 50.55 51.04 51.18 49.83 50.67 50.42 49.10 49.12 49.77 47.53 48.21 47.11 47.97 48.55 46.58 46.28 45.37 44.54 44.70 47.08 46.91 46.56 46.11 51.42 51.97 52.29
MSLP
1017.21 1016.97 1017.04 1016.99 1017.02 1016.87 1017.04 1017.07 1017.57 1018.35 1018.50 1018.46 1018.82 1018.00 1017.40 1017.96 1018.10 1018.30 1018.55 1018.68 1018.97 1018.91 1018.94 1018.88 1018.81 1018.81 1018.64 1018.42 1018.36 1018.38 1018.35 1018.33 1018.37 1018.42 1018.45 1018.49 1018.47 1018.39
1017.21 1017.02 1016.85 1016.85 1016.79 1016.78 1016.77 1016.90 1017.22 1017.74 1018.18 1018.09 1018.07 1017.88 1017.60 1017.46 1017.92 1018.41 1018.44 1018.92 1019.21 1019.24 1019.24 1019.15 1019.02 1019.09 1019.02 1018.89 1018.88 1018.84 1018.74 1018.73 1018.73 1018.74 1018.77 1018.75 1018.67 1018.59
1016.83 1016.90 1016.86 1016.73 1016.73 1016.87 1016.78 1016.93 1017.07 1017.36 1017.80 1017.62 1017.44 1017.41 1017.37 1017.22 1017.56 1018.16 1018.89 1019.38 1019.69 1019.59 1019.46 1019.54 1019.48 1019.63 1019.61 1019.58 1019.54 1019.46 1019.32 1019.24 1019.21 1019.19 1019.19 1019.17 1019.06 1018.93
1016.53 1016.74 1016.72 1016.49 1016.50 1016.69 1016.69 1016.92 1016.95 1016.88 1017.25 1017.71 1017.36 1017.45 1017.18 1017.14 1017.42 1018.25 1018.90 1019.46 1019.78 1019.89 1019.93 1019.98 1019.91 1020.05 1020.08 1020.10 1020.16 1020.12 1019.99 1019.88 1019.88 1019.86 1019.80 1019.72 1019.65 1019.61
1016.12 1016.36 1016.39 1016.31 1016.37 1016.49 1016.66 1016.84 1016.83 1016.97 1017.18 1017.44 1017.70 1017.47 1017.40 1017.34 1017.66 1018.37 1019.18 1019.68 1020.00 1020.18 1020.30 1020.48 1020.43 1020.35 1020.43 1020.51 1020.54 1020.52 1020.53 1020.52 1020.53 1020.48 1020.40 1020.40 1020.35 1020.34
1015.59 1015.78 1015.97 1015.98 1016.08 1016.27 1016.56 1016.76 1016.88 1017.09 1017.24 1017.37 1017.57 1017.65 1017.59 1017.48 1017.55 1018.32 1019.29 1019.81 1020.05 1019.95 1020.44 1020.70 1020.72 1020.70 1020.75 1020.88 1021.02 1021.07 1021.07 1021.01 1021.06 1021.10 1021.11 1021.10 1021.01 1020.90
1015.24 1015.41 1015.65 1015.79 1015.98 1016.01 1016.42 1016.75 1016.84 1017.12 1017.34 1017.52 1017.70 1017.78 1017.88 1017.87 1017.98 1018.13 1018.74 1019.38 1020.14 1020.44 1020.88 1021.03 1020.87 1021.10 1021.29 1021.43 1021.46 1021.43 1021.57 1021.61 1021.54 1021.56 1021.57 1021.60 1021.64 1021.56
1015.08 1015.18 1015.51 1015.58 1015.80 1016.09 1016.26 1016.53 1016.70 1017.03 1017.34 1017.56 1017.90 1018.16 1018.22 1018.21 1018.20 1018.29 1018.79 1019.38 1019.94 1020.27 1020.60 1021.10 1021.04 1021.50 1021.70 1021.73 1021.64 1021.80 1021.73 1021.87 1021.93 1022.01 1022.08 1022.10 1022.04 1021.98
1014.62 1014.83 1015.21 1015.48 1015.82 1016.37 1016.45 1016.71 1016.88 1017.04 1017.09 1017.31 1017.67 1018.13 1018.31 1018.33 1018.23 1018.39 1018.59 1018.90 1019.29 1019.83 1020.28 1021.12 1021.36 1021.64 1021.79 1021.83 1022.00 1022.09 1022.17 1022.27 1022.34 1022.33 1022.37 1022.39 1022.42 1022.46
1014.06 1014.22 1014.58 1015.14 1015.62 1016.17 1016.51 1017.01 1017.31 1017.41 1017.39 1017.26 1017.28 1017.79 1017.99 1018.11 1018.00 1018.00 1018.58 1019.08 1019.48 1019.56 1019.69 1020.67 1021.31 1021.56 1021.78 1021.99 1022.05 1022.17 1022.26 1022.33 1022.48 1022.59 1022.61 1022.60 1022.62 1022.68
1013.64 1013.84 1014.13 1014.72 1015.38 1015.76 1016.37 1017.09 1017.68 1018.06 1017.97 1017.53 1017.50 1017.64 1017.63 1017.83 1017.92 1018.06 1018.67 1019.06 1019.65 1019.76 1019.70 1020.12 1020.84 1021.21 1021.48 1021.67 1021.77 1021.78 1022.08 1022.27 1022.30 1022.38 1022.34 1022.41 1022.43 1022.57
1013.79 1013.97 1014.09 1014.65 1015.39 1015.78 1016.21 1016.91 1017.61 1017.97 1018.07 1018.42 1018.29 1017.81 1017.76 1017.67 1017.95 1017.95 1018.06 1018.80 1019.47 1019.97 1019.81 1019.93 1020.51 1020.73 1021.30 1021.34 1021.45 1021.74 1021.99 1022.16 1022.29 1022.37 1022.59 1022.67 1022.70 1022.78
1013.44 1014.06 1014.35 1014.87 1015.29 1015.57 1015.92 1016.48 1016.92 1017.51 1017.95 1018.49 1018.63 1018.45 1018.36 1018.29 1018.49 1018.45 1018.18 1018.19 1018.65 1019.51 1019.70 1019.78 1020.20 1020.39 1020.57 1021.07 1021.14 1021.22 1021.66 1021.95 1022.27 1022.32 1022.31 1022.43 1022.61 1022.73
1012.75 1013.57 1014.03 1014.72 1015.06 1015.36 1015.74 1016.20 1016.80 1017.26 1017.80 1018.32 1018.59 1018.64 1018.60 1018.61 1018.78 1018.70 1018.79 1018.80 1018.42 1018.96 1019.41 1019.42 1019.97 1020.00 1020.23 1020.68 1020.90 1021.03 1021.40 1021.77 1021.95 1022.26 1022.29 1022.15 1022.18 1022.27
1012.38 1013.03 1013.42 1014.52 1014.99 1015.30 1015.70 1016.17 1016.71 1017.07 1017.54 1018.14 1018.26 1018.50 1018.45 1018.64 1018.69 1019.02 1019.25 1019.43 1019.26 1019.34 1019.48 1019.64 1019.74 1019.89 1020.07 1020.55 1020.93 1021.01 1021.07 1021.18 1021.39 1021.67 1021.47 1021.57 1021.53 1021.64
1013.29 1013.79 1013.91 1014.35 1014.95 1015.64 1016.11 1016.38 1016.81 1016.87 1017.17 1017.56 1018.06 1018.32 1018.41 1018.63 1018.96 1019.17 1019.73 1019.87 1019.93 1020.11 1019.87 1019.79 1019.75 1019.78 1020.60 1020.81 1020.77 1021.18 1021.13 1021.43 1021.55 1021.32 1021.43 1021.14 1020.84 1020.80
1013.86 1013.79 1013.80 1014.60 1014.35 1015.59 1016.41 1016.56 1016.95 1017.17 1017.52 1017.67 1018.02 1018.37 1018.76 1019.03 1019.40 1019.32 1019.45 1019.98 1020.23 1020.60 1020.72 1020.44 1020.34 1020.25 1020.43 1020.60 1021.06 1021.21 1021.35 1021.48 1021.44 1021.38 1021.33 1021.37 1020.85 1020.48
1014.32 1014.31 1014.36 1014.97 1015.82 1016.21 1016.44 1017.07 1017.40 1017.73 1017.73 1017.90 1018.27 1018.50 1019.03 1019.26 1019.69 1019.90 1019.87 1020.19 1020.61 1020.86 1020.94 1020.85 1020.88 1020.94 1020.95 1020.95 1020.76 1021.29 1021.34 1021.55 1021.45 1021.51 1021.63 1021.72 1021.62 1021.17
1014.97 1015.27 1015.59 1015.82 1016.82 1016.16 1016.56 1017.07 1017.35 1017.74 1017.86 1018.31 1018.66 1018.88 1019.00 1019.38 1019.86 1020.11 1020.41 1020.54 1020.81 1021.08 1021.21 1021.01 1021.11 1021.31 1021.67 1021.67 1021.11 1020.88 1021.33 1021.30 1021.43 1021.43 1021.23 1021.41 1021.54 1021.14
1015.50 1015.86 1015.66 1015.86 1016.27 1016.58 1016.94 1016.83 1017.09 1017.42 1017.75 1018.28 1018.63 1018.99 1019.37 1019.82 1020.16 1020.19 1020.32 1020.67 1021.01 1021.23 1021.44 1021.19 1021.10 1021.25 1021.61 1021.75 1021.58 1020.87 1020.45 1020.87 1021.24 1021.58 1021.41 1021.31 1021.32 1021.01
1015.77 1015.82 1015.82 1015.76 1016.06 1016.34 1016.86 1016.95 1017.22 1017.58 1017.69 1018.09 1018.70 1019.14 1019.46 1019.80 1020.19 1020.29 1020.65 1020.55 1020.79 1021.22 1021.50 1021.27 1020.76 1020.42 1020.95 1021.31 1021.47 1021.09 1020.11 1020.19 1020.17 1020.44 1020.69 1021.01 1021.07 1021.17
1015.45 1015.39 1015.40 1015.39 1015.67 1015.88 1016.74 1017.06 1017.20 1017.72 1017.95 1018.16 1018.70 1018.97 1019.38 1019.67 1020.09 1020.39 1020.50 1020.60 1020.82 1021.06 1020.93 1020.50 1020.45 1020.72 1021.15 1021.30 1021.31 1021.01 1020.58 1019.98 1019.93 1019.94 1020.10 1020.07 1020.19 1020.54
1014.83 1014.89 1015.08 1015.50 1015.75 1016.20 1016.67 1017.08 1017.47 1017.75 1017.99 1018.12 1018.51 1018.72 1019.14 1019.65 1019.74 1019.86 1020.12 1020.36 1020.48 1020.60 1020.43 1020.65 1020.65 1020.89 1021.05 1021.04 1020.97 1020.60 1020.29 1020.14 1019.91 1020.06 1019.94 1019.58 1019.53 1019.50
Wind_Speed
3 3 2 2 1 2 2 2 4 1 1 1 4 5 1 1 5 4 4 8 7 9 8 8 8 9 11 12 12 11 10 9 7 6 5 3 2 3
2 0 2 2 3 2 1 1 2 3 0 3 4 5 4 4 6 4 5 8 8 9 10 9 10 10 10 11 11 10 10 9 9 9 8 7 6 7
4 3 5 3 3 2 2 2 1 2 3 3 1 5 3 5 6 5 6 5 4 9 10 10 11 12 12 12 12 11 10 10 10 10 10 10 10 10
6 4 5 1 2 1 2 2 3 2 2 1 1 4 0 2 6 8 6 6 5 9 10 11 12 13 13 13 13 12 12 12 12 11 11 11 12 12
6 6 6 4 3 2 1 1 2 2 2 2 1 0 1 2 3 7 8 7 6 13 12 11 13 14 14 14 14 12 11 11 11 11 11 12 13 13
6 5 6 5 5 4 3 2 2 2 1 2 1 1 1 1 3 7 4 3 5 7 8 8 11 14 14 12 13 13 11 11 10 10 10 10 10 11
6 4 2 2 4 3 4 3 3 2 2 2 1 1 2 3 2 1 4 6 5 3 4 2 4 4 6 9 12 13 11 10 10 9 9 10 11 12
6 4 5 7 7 7 9 7 4 4 3 2 1 2 1 1 2 2 6 5 3 3 3 3 2 4 3 3 8 9 10 9 9 9 9 9 10 9
7 6 5 5 7 4 9 11 10 9 3 4 4 2 2 0 1 2 2 2 2 3 3 2 1 1 2 3 5 6 6 7 7 8 8 8 8 7
8 7 7 7 8 9 7 6 6 5 4 3 5 4 3 2 1 2 4 5 4 3 3 3 2 1 2 2 3 3 5 5 6 6 6 6 5 5
5 5 7 7 6 12 9 8 5 3 4 7 7 6 5 4 4 5 3 3 2 1 3 3 3 3 3 3 4 8 6 4 7 8 8 7 7 6
4 5 8 8 8 6 8 8 6 5 5 1 1 2 0 6 9 4 5 3 3 1 2 3 3 4 2 3 4 3 3 7 7 7 6 6 6 2
6 5 5 8 9 8 9 8 6 7 6 4 3 2 2 4 4 4 4 4 4 3 3 2 1 2 1 3 3 4 4 2 3 3 8 8 7 6
9 6 6 9 8 9 7 13 14 8 4 2 3 2 4 3 3 4 5 4 5 6 1 3 3 2 2 2 2 2 3 3 3 2 3 5 9 10
7 9 17 12 12 10 12 14 9 4 3 2 4 3 2 3 5 4 3 4 6 5 3 3 3 3 4 3 3 2 3 3 4 4 4 5 4 4
12 8 7 10 10 8 8 6 4 3 4 4 4 2 3 3 1 3 2 1 3 3 4 5 6 4 3 3 4 2 4 3 0 1 3 4 4 5
8 7 8 6 8 6 4 5 4 4 4 3 2 3 2 3 1 1 3 2 3 2 2 4 5 6 5 4 4 3 2 2 0 1 3 4 5 4
6 5 8 6 6 5 5 4 3 3 3 4 3 4 3 3 2 2 3 5 5 2 2 2 3 4 4 4 2 2 2 1 2 3 2 2 3 3
6 4 5 4 2 4 4 4 4 3 3 4 3 4 4 3 4 3 3 3 2 2 1 1 2 3 2 1 4 3 3 1 1 2 1 1 1 3
3 2 4 4 4 4 4 4 4 4 4 4 4 3 3 4 3 4 3 3 2 1 2 0 2 2 4 5 2 4 9 4 3 2 2 1 1 4
3 4 4 4 4 4 3 4 5 4 4 5 4 4 5 4 3 3 3 3 3 2 3 3 5 6 2 2 3 4 5 10 7 5 4 3 1 2
3 5 5 4 5 5 5 4 4 5 4 5 4 4 4 3 3 4 3 3 3 3 4 2 2 2 2 3 4 4 3 3 5 6 5 9 6 3
3 4 4 4 4 5 5 5 5 4 4 4 4 3 3 3 4 5 5 4 5 4 4 1 1 1 2 3 3 3 3 3 3 2 3 11 12 12
Wind_Direction
253 259 242 299 225 235 235 136 143 47 309 105 124 227 339 232 157 137 154 139 132 117 106 90 70 50 48 53 56 58 61 63 64 67 74 59 13 1
295 157 290 266 348 330 139 148 132 137 175 176 223 208 233 205 179 165 127 139 134 116 106 90 83 71 62 58 56 55 60 63 66 69 68 61 61 64
279 250 254 289 279 299 20 23 129 145 161 290 146 209 216 203 143 127 139 99 107 107 102 88 77 72 66 63 60 59 59 57 63 65 66 65 66 72
239 242 242 289 1 111 91 47 70 41 131 267 324 26 138 141 150 149 148 122 113 98 95 94 93 85 79 72 66 60 51 51 53 56 62 69 71 69
225 222 228 209 228 235 148 66 70 66 88 102 324 67 60 87 79 90 102 100 106 106 97 95 94 93 88 83 82 74 66 59 53 56 63 63 69 70
245 221 205 213 206 221 203 128 107 68 56 66 76 63 84 350 99 136 128 123 138 117 103 117 103 93 87 84 80 74 71 74 70 68 65 68 70 76
238 209 191 125 67 115 147 149 131 109 122 96 85 79 61 47 71 51 117 124 96 114 125 138 102 72 61 66 74 82 78 74 79 77 77 75 67 64
229 216 147 136 120 115 103 96 117 147 129 125 135 133 91 93 12 107 138 142 141 159 121 65 74 70 62 70 92 89 89 86 84 88 85 79 77 80
211 203 184 169 139 133 112 99 79 65 96 150 134 119 136 142 346 84 94 109 107 125 111 105 91 128 147 128 103 90 86 87 93 91 86 85 82 86
195 192 174 161 168 157 145 109 88 69 52 90 113 142 139 193 173 136 134 102 84 116 143 133 176 164 159 158 176 151 127 115 122 123 116 110 106 109
194 146 167 152 167 166 141 135 116 75 40 86 119 143 154 213 211 127 147 127 113 142 195 119 175 146 170 189 193 203 189 190 186 181 179 170 164 162
127 99 90 132 157 158 140 139 135 159 139 140 267 257 165 87 68 102 162 144 113 92 286 114 154 155 166 195 184 195 196 226 225 230 223 214 204 199
158 142 118 132 150 152 155 160 151 146 159 185 234 157 107 74 66 35 60 135 125 101 258 134 162 199 202 146 201 182 176 200 197 248 239 243 233 210
164 145 141 155 153 157 130 132 135 132 134 160 240 138 124 107 99 92 58 64 76 120 165 127 120 135 158 129 175 131 175 173 177 224 225 240 232 230
151 151 139 129 114 97 121 118 111 115 164 172 116 100 123 144 113 81 70 74 71 60 56 70 98 68 66 91 93 48 129 208 192 211 218 221 216 182
111 120 120 120 109 117 110 101 107 110 135 123 126 123 115 94 128 139 123 87 78 30 358 31 65 85 81 62 95 65 33 72 15 192 246 259 249 213
115 121 106 116 104 97 82 87 73 74 91 90 111 121 100 97 91 141 139 148 101 111 353 348 34 71 79 121 68 71 81 89 169 316 30 2 348 15
64 94 102 106 110 128 109 98 102 133 152 136 133 122 128 112 93 35 71 107 117 138 100 43 39 31 22 2 97 109 32 77 360 26 41 63 345 323
92 49 83 89 165 108 135 155 137 151 114 108 103 115 123 117 127 95 99 101 81 84 91 140 81 99 79 111 287 196 163 231 177 301 187 152 216 270
102 135 150 154 176 175 166 135 132 125 123 118 102 125 109 119 111 108 108 122 142 124 132 60 93 130 143 190 209 262 200 170 165 211 259 353 247 27
179 190 199 177 171 156 137 137 144 133 123 116 119 118 130 127 132 124 149 159 131 105 170 208 222 195 123 78 8 300 291 200 172 177 192 158 226 308
247 202 189 165 145 136 147 153 140 135 131 125 135 144 151 142 161 173 188 165 207 199 195 225 158 98 73 164 256 267 277 289 238 245 203 172 164 218
234 195 137 132 129 133 133 130 128 138 147 146 163 165 165 169 190 192 217 207 229 198 182 130 89 143 237 204 238 269 274 226 208 248 255 228 228 236